Location: Unnamed
(47.6264°N, 122.3366°W)
Time: 13:08:10
(UTC-07:00)

UPPER FREE FLYER - Pass Details

Date: 12 August 2020
Orbit: 571 x 589 km, 97.7° (Epoch: 01 October)

Event Time Altitude Azimuth Distance (km) Brightness Sun altitude
Exits shadow 00:01:52 18° 260° (W) 1,430 ? -25.5°
Maximum altitude 00:02:19 19° 268° (W) 1,418 ? -25.5°
Drops below altitude 10° 00:05:14 10° 314° (NW) 1,895 ? -25.7°
Sets 00:07:57 0° 333° (NNW) 2,804 ? -25.8°
